Seattle Boeing, WA
on Saturday, January 26, 2013

Saturday
Previous Day Next Day
Daily Summary
 ActualAverage (KSEA)Record (KSEA)
Temperature
Mean Temperature °F 43°F  
Max Temperature 48°F 48°F 58°F (2003)
Min Temperature 41°F 37°F 9°F (1957)
Degree Days
Heating Degree Days 20 22  
Month to date heating degree days 600  
Since 1 July heating degree days 2538  
Cooling Degree Days 0 0  
Month to date cooling degree days 0  
Year to date cooling degree days 0  
Moisture
Dew Point 37°F   
Average Humidity 78    
Maximum Humidity 89    
Minimum Humidity 63    
Precipitation
Precipitation 0.16 in 0.16 in 1.03 in (1950)
Month to date precipitation 4.78  
Year to date precipitation 4.78  
Snow
Snow 0.00 in in 10.00 in (1950)
Month to date snowfall  
Since 1 July snowfall  
Snow Depth in   
Wind
Wind Speed 8 mph   
Max Wind Speed 14 mph   
Max Gust Speed 22 mph   
Visibility 9 miles   
Events Rain   

Key: T is trace of precipitation, MM is missing value
Source: NWS Daily Summary
Time(PST)TemperatureDew PointHumidity Pressure Visibility Wind DirectionWind SpeedGust SpeedPrecipitationEvents Conditions
12:53 AM 42.1°F 39.0°F 89% 29.92 in 10.0 miles SE 9.2 mph - N/A   Overcast
1:53 AM 41.0°F 37.9°F 89% 29.91 in 10.0 miles SE 9.2 mph - N/A   Clear
2:53 AM 41.0°F 37.9°F 89% 29.91 in 10.0 miles SE 5.8 mph - N/A   Overcast
3:53 AM 41.0°F 37.0°F 86% 29.90 in 10.0 miles SE 5.8 mph - N/A   Overcast
4:53 AM 41.0°F 37.0°F 86% 29.90 in 7.0 miles SE 6.9 mph - 0.04 in Rain Light Rain
5:51 AM 41.0°F 37.4°F 87% 29.90 in 5.0 miles South 6.9 mph - 0.03 in Rain Light Rain
5:53 AM 41.0°F 37.9°F 89% 29.90 in 5.0 miles SSE 5.8 mph - 0.03 in Rain Light Rain
6:27 AM 42.8°F 37.4°F 81% 29.89 in 10.0 miles SE 5.8 mph - 0.02 in   Overcast
6:53 AM 41.0°F 37.9°F 89% 29.89 in 8.0 miles SE 5.8 mph - 0.02 in   Overcast
7:29 AM 42.8°F 37.4°F 81% 29.90 in 10.0 miles SSE 6.9 mph - 0.01 in Rain Light Rain
7:53 AM 41.0°F 37.0°F 86% 29.90 in 10.0 miles SE 5.8 mph - 0.01 in Rain Light Rain
8:53 AM 43.0°F 37.9°F 82% 29.91 in 5.0 miles South 6.9 mph - 0.04 in Rain Light Rain
8:56 AM 42.8°F 39.2°F 87% 29.91 in 6.0 miles South 6.9 mph - 0.00 in Rain Light Rain
9:50 AM 44.6°F 39.2°F 81% 29.93 in 10.0 miles South 8.1 mph - 0.00 in   Overcast
9:53 AM 45.0°F 39.0°F 80% 29.93 in 10.0 miles South 5.8 mph - 0.00 in   Overcast
10:53 AM 46.0°F 37.9°F 73% 29.94 in 10.0 miles South 13.8 mph 19.6 mph N/A   Overcast
11:16 AM 46.4°F 37.4°F 71% 29.94 in 10.0 miles South 11.5 mph 20.7 mph N/A   Overcast
11:53 AM 48.9°F 37.9°F 66% 29.93 in 10.0 miles South 9.2 mph 20.7 mph N/A   Overcast
12:53 PM 48.0°F 36.0°F 63% 29.93 in 10.0 miles SSW 10.4 mph 21.9 mph N/A   Overcast
1:53 PM 48.0°F 37.9°F 68% 29.93 in 10.0 miles SSW 11.5 mph - N/A   Overcast
2:25 PM 46.4°F 37.4°F 71% 29.93 in 10.0 miles SSW 9.2 mph 16.1 mph N/A   Overcast
2:53 PM 48.0°F 37.0°F 66% 29.93 in 10.0 miles SSW 6.9 mph - N/A   Overcast
3:53 PM 46.9°F 37.0°F 68% 29.94 in 10.0 miles South 8.1 mph - 0.00 in   Overcast
4:53 PM 46.0°F 37.0°F 71% 29.95 in 10.0 miles South 6.9 mph - 0.01 in Rain Light Rain
5:53 PM 46.0°F 37.0°F 71% 29.97 in 10.0 miles Variable 5.8 mph - 0.01 in Rain Light Rain
6:53 PM 45.0°F 37.0°F 74% 29.98 in 10.0 miles South 3.5 mph - 0.00 in   Overcast
7:53 PM 45.0°F 37.0°F 74% 30.00 in 10.0 miles South 6.9 mph - N/A   Overcast
8:53 PM 44.1°F 37.0°F 76% 30.01 in 10.0 miles SSE 8.1 mph - N/A   Overcast
9:53 PM 44.1°F 37.0°F 76% 30.01 in 10.0 miles SW 5.8 mph - N/A   Overcast
10:53 PM 43.0°F 36.0°F 76% 30.04 in 10.0 miles SSW 5.8 mph - N/A   Overcast
11:53 PM 43.0°F 36.0°F 76% 30.04 in 10.0 miles WSW 4.6 mph - N/A   Overcast
Moon Phase
Jan. 26 Jan. 26 Feb. 03 Feb. 10 Feb. 17
Sunrise:07:42 AM (PST) Moon Rise:05:06 PM (PST)1/26
Sunset:05:01 PM (PST) Moon Set:07:00 AM (PST)1/26

Copyright © 2014 The Weather Underground, Inc.